Torna al catalogo

QIANFAN-90

AttivoComunicazioniPO
NORAD 63176·PAYLOAD·🇨🇳 China

Lanciato Mar 11, 2025 da Wenchang Space Launch Site

Loading…

Prossimi Passaggi (prossime 24 ore)

TLE

AggiornatoSource: Space-Track

Epoca: Sep 14, 2026, 13:37 UTC

1 63176U 25046T   26257.56802911  .00000030  00000-0  28258-4 0  9996
2 63176  88.9653 291.3786 0015029  53.4030 306.8501 13.51019818 84666

Traccia QIANFAN-90 in tempo reale con AllMySat

Download on the App Store